Tracking 25734 objects as of 27-May-2022
HD Live streaming from Space Station
objects crossing your sky now

SL-16 DEB

Track SL-16 DEB now!
10-day predictions


NORAD ID: 42248
Int'l Code: 1993-016DC
Perigee: 717.8 km
Apogee: 891.3 km
Inclination: 71.0 °
Period: 100.8 minutes
Semi major axis: 7175 km
RCS: Unknown
Launch date: March 26, 1993
Source: Commonwealth of Independent States (former USSR) (CIS)
Launch site: PLESETSK MISSILE AND SPACE COMPLEX (PKMTR)

Note: This is SATELLITE DEBRIS
aabbcc
Your satellite tracking list
Your tracking list is empty




NASA's NSSDC Master Catalog

Two Line Element Set (TLE):
1 42248U 93016DC  22139.31382780  .00009485  00000-0  35257-2 0  9998
2 42248  70.9657 129.2743 0120888 240.5229 118.3798 14.28314251443183
Source of the keplerian elements: AFSPC